| time (UTC) | temp F | wind direction | speed MPH | gust MPH | rain 1hr in | rain 24hr in | rain mn in | humidity % | barometer mb |
| 20260509185532 | 48 | 33 | 1.0 | 4.0 | 0.00 | 0.04 | 0.04 | 79 | 995.6 |
| 20260509185032 | 48 | 101 | 1.0 | 7.0 | 0.00 | 0.04 | 0.04 | 80 | 995.7 |
| 20260509184534 | 48 | 94 | 2.0 | 7.0 | 0.00 | 0.04 | 0.04 | 79 | 995.7 |
| 20260509184030 | 47 | 67 | 1.0 | 6.0 | 0.00 | 0.04 | 0.04 | 81 | 995.8 |
| 20260509183528 | 47 | 111 | 1.0 | 6.0 | 0.00 | 0.04 | 0.04 | 79 | 995.8 |
| 20260509183028 | 47 | 10 | 1.0 | 7.0 | 0.00 | 0.04 | 0.04 | 81 | 995.8 |
| 20260509182527 | 47 | 24 | 3.0 | 7.0 | 0.00 | 0.04 | 0.04 | 81 | 995.8 |
| 20260509182025 | 47 | 65 | 3.0 | 6.0 | 0.00 | 0.04 | 0.04 | 82 | 995.8 |
| 20260509181524 | 46 | 73 | 1.0 | 3.0 | 0.00 | 0.04 | 0.04 | 84 | 995.8 |
| 20260509181024 | 46 | 200 | 0.0 | 5.0 | 0.00 | 0.04 | 0.04 | 84 | 995.9 |
| 20260509180522 | 45 | 98 | 2.0 | 5.0 | 0.00 | 0.04 | 0.04 | 85 | 995.9 |
| 20260509180020 | 45 | 71 | 1.0 | 6.0 | 0.00 | 0.04 | 0.04 | 85 | 995.8 |
| 20260509175518 | 45 | 71 | 0.0 | 8.0 | 0.00 | 0.04 | 0.04 | 84 | 995.9 |
| 20260509175018 | 45 | 92 | 3.0 | 8.0 | 0.00 | 0.04 | 0.04 | 85 | 995.9 |
| 20260509174517 | 45 | 117 | 3.0 | 7.0 | 0.00 | 0.04 | 0.04 | 85 | 995.9 |
| 20260509174016 | 45 | 97 | 1.0 | 7.0 | 0.00 | 0.04 | 0.04 | 86 | 996.0 |
| 20260509173518 | 45 | 30 | 1.0 | 5.0 | 0.00 | 0.04 | 0.04 | 85 | 996.1 |
| 20260509173022 | 44 | 74 | 2.0 | 5.0 | 0.00 | 0.04 | 0.04 | 85 | 996.1 |
| 20260509172516 | 44 | 84 | 2.0 | 6.0 | 0.00 | 0.04 | 0.04 | 87 | 996.1 |
| 20260509172012 | 44 | 84 | 2.0 | 6.0 | 0.00 | 0.04 | 0.04 | 89 | 996.2 |
| 20260509171510 | 43 | 80 | 0.0 | 4.0 | 0.00 | 0.04 | 0.04 | 92 | 996.2 |
| 20260509171008 | 43 | 40 | 3.0 | 4.0 | 0.00 | 0.04 | 0.04 | 92 | 996.3 |
| 20260509170507 | 42 | 76 | 0.0 | 4.0 | 0.00 | 0.04 | 0.04 | 93 | 996.3 |
| 20260509170006 | 42 | 51 | 0.0 | 4.0 | 0.00 | 0.04 | 0.04 | 94 | 996.3 |
| 20260509165504 | 42 | 56 | 0.0 | 4.0 | 0.00 | 0.04 | 0.04 | 94 | 996.3 |
| 20260509165003 | 41 | 65 | 1.0 | 4.0 | 0.00 | 0.04 | 0.04 | 94 | 996.5 |
| 20260509164502 | 41 | 78 | 0.0 | 4.0 | 0.00 | 0.04 | 0.04 | 94 | 996.5 |
| 20260509164001 | 41 | 92 | 1.0 | 4.0 | 0.00 | 0.04 | 0.04 | 94 | 996.5 |
| 20260509163559 | 41 | 78 | 1.0 | 3.0 | 0.00 | 0.04 | 0.04 | 95 | 996.5 |
| 20260509163104 | 40 | 89 | 0.0 | 3.0 | 0.00 | 0.04 | 0.04 | 95 | 996.5 |
| 20260509162558 | 40 | 82 | 0.0 | 0.0 | 0.00 | 0.04 | 0.04 | 95 | 996.6 |
| 20260509162057 | 40 | 328 | 0.0 | 0.0 | 0.00 | 0.04 | 0.04 | 95 | 996.5 |
| 20260509161603 | 40 | 328 | 0.0 | 0.0 | 0.00 | 0.04 | 0.04 | 95 | 996.6 |
| 20260509161053 | 39 | 328 | 0.0 | 0.0 | 0.00 | 0.04 | 0.04 | 95 | 996.5 |
| 20260509160552 | 39 | 323 | 0.0 | 0.0 | 0.00 | 0.04 | 0.04 | 95 | 996.7 |
| 20260509160051 | 39 | 323 | 0.0 | 0.0 | 0.00 | 0.04 | 0.04 | 95 | 996.8 |
| 20260509155548 | 39 | 323 | 0.0 | 0.0 | 0.00 | 0.04 | 0.04 | 95 | 996.8 |
| 20260509155047 | 38 | 319 | 0.0 | 0.0 | 0.00 | 0.04 | 0.04 | 95 | 996.8 |
| 20260509154550 | 38 | 319 | 0.0 | 0.0 | 0.00 | 0.04 | 0.04 | 95 | 996.8 |
| 20260509154046 | 38 | 319 | 0.0 | 0.0 | 0.00 | 0.04 | 0.04 | 95 | 997.0 |
| 20260509153545 | 38 | 319 | 0.0 | 0.0 | 0.00 | 0.04 | 0.04 | 95 | 996.9 |
| 20260509153055 | 38 | 319 | 0.0 | 0.0 | 0.00 | 0.04 | 0.04 | 95 | 997.0 |
| 20260509152543 | 38 | 319 | 0.0 | 0.0 | 0.00 | 0.04 | 0.04 | 95 | 997.1 |
| 20260509152042 | 38 | 319 | 0.0 | 0.0 | 0.00 | 0.04 | 0.04 | 95 | 997.0 |
| 20260509151540 | 37 | 319 | 0.0 | 0.0 | 0.00 | 0.04 | 0.04 | 95 | 997.2 |
| 20260509151039 | 37 | 319 | 0.0 | 0.0 | 0.00 | 0.04 | 0.04 | 95 | 997.1 |
| 20260509150538 | 37 | 319 | 0.0 | 0.0 | 0.00 | 0.04 | 0.04 | 95 | 997.1 |
| 20260509150037 | 37 | 319 | 0.0 | 0.0 | 0.00 | 0.04 | 0.04 | 95 | 997.2 |
| 20260509145537 | 37 | 319 | 0.0 | 0.0 | 0.00 | 0.04 | 0.04 | 95 | 997.2 |
| 20260509145037 | 37 | 319 | 0.0 | 0.0 | 0.00 | 0.04 | 0.04 | 95 | 997.3 |
| 20260509144541 | 37 | 319 | 0.0 | 0.0 | 0.00 | 0.04 | 0.04 | 95 | 997.3 |
| 20260509144035 | 37 | 319 | 0.0 | 0.0 | 0.00 | 0.04 | 0.04 | 95 | 997.4 |
| 20260509143537 | 37 | 319 | 0.0 | 0.0 | 0.00 | 0.04 | 0.04 | 95 | 997.4 |
| 20260509143034 | 37 | 319 | 0.0 | 1.0 | 0.00 | 0.04 | 0.04 | 95 | 997.5 |
| 20260509142533 | 37 | 319 | 0.0 | 2.0 | 0.00 | 0.04 | 0.04 | 95 | 997.5 |
| 20260509142033 | 37 | 319 | 0.0 | 0.0 | 0.01 | 0.04 | 0.04 | 95 | 997.5 |
| 20260509141538 | 37 | 321 | 0.0 | 0.0 | 0.01 | 0.04 | 0.04 | 95 | 997.6 |
| 20260509141031 | 37 | 321 | 0.0 | 0.0 | 0.01 | 0.04 | 0.04 | 95 | 997.7 |
| 20260509140529 | 37 | 321 | 0.0 | 0.0 | 0.01 | 0.04 | 0.04 | 95 | 997.9 |
| 20260509140031 | 37 | 321 | 0.0 | 0.0 | 0.01 | 0.04 | 0.04 | 95 | 997.9 |
| 20260509135529 | 37 | 321 | 0.0 | 0.0 | 0.01 | 0.04 | 0.04 | 95 | 997.9 |
| 20260509135028 | 37 | 321 | 0.0 | 0.0 | 0.01 | 0.04 | 0.04 | 95 | 998.0 |
| 20260509134528 | 37 | 321 | 0.0 | 1.0 | 0.01 | 0.04 | 0.04 | 95 | 998.0 |
| 20260509134026 | 37 | 321 | 0.0 | 2.0 | 0.01 | 0.04 | 0.04 | 95 | 998.0 |
| 20260509133526 | 37 | 321 | 0.0 | 2.0 | 0.01 | 0.04 | 0.04 | 95 | 998.1 |
| 20260509133026 | 37 | 321 | 0.0 | 2.0 | 0.01 | 0.04 | 0.04 | 95 | 998.2 |
| 20260509132527 | 37 | 321 | 0.0 | 0.0 | 0.01 | 0.04 | 0.04 | 95 | 998.2 |
| 20260509132023 | 37 | 321 | 0.0 | 0.0 | 0.00 | 0.03 | 0.03 | 95 | 998.2 |
| 20260509131523 | 37 | 321 | 0.0 | 2.0 | 0.01 | 0.03 | 0.03 | 95 | 998.3 |
| 20260509131024 | 37 | 321 | 0.0 | 2.0 | 0.01 | 0.03 | 0.03 | 95 | 998.3 |
| 20260509130521 | 37 | 321 | 0.0 | 0.0 | 0.01 | 0.03 | 0.03 | 95 | 998.5 |
| 20260509130020 | 37 | 321 | 0.0 | 0.0 | 0.01 | 0.03 | 0.03 | 95 | 998.4 |
| 20260509125519 | 37 | 321 | 0.0 | 0.0 | 0.01 | 0.03 | 0.03 | 95 | 998.3 |
| 20260509125020 | 37 | 321 | 0.0 | 0.0 | 0.01 | 0.03 | 0.03 | 94 | 998.5 |
| 20260509124518 | 37 | 321 | 0.0 | 0.0 | 0.01 | 0.03 | 0.03 | 94 | 998.6 |
| 20260509124016 | 37 | 321 | 0.0 | 0.0 | 0.01 | 0.03 | 0.03 | 94 | 998.6 |
| 20260509123517 | 37 | 321 | 0.0 | 0.0 | 0.01 | 0.03 | 0.03 | 94 | 998.7 |
| 20260509123017 | 37 | 321 | 0.0 | 0.0 | 0.01 | 0.03 | 0.03 | 94 | 998.7 |
| 20260509122517 | 37 | 321 | 0.0 | 0.0 | 0.01 | 0.03 | 0.03 | 94 | 998.6 |
| 20260509122017 | 37 | 321 | 0.0 | 0.0 | 0.02 | 0.03 | 0.03 | 94 | 998.6 |
| 20260509121516 | 37 | 321 | 0.0 | 0.0 | 0.01 | 0.02 | 0.02 | 94 | 998.6 |
| 20260509121015 | 37 | 321 | 0.0 | 2.0 | 0.01 | 0.02 | 0.02 | 94 | 998.7 |
| 20260509120515 | 37 | 321 | 0.0 | 2.0 | 0.02 | 0.02 | 0.02 | 94 | 998.7 |
| 20260509120014 | 37 | 321 | 0.0 | 0.0 | 0.02 | 0.02 | 0.02 | 94 | 998.8 |
| 20260509115513 | 37 | 321 | 0.0 | 0.0 | 0.02 | 0.02 | 0.02 | 94 | 998.8 |
| 20260509115013 | 37 | 321 | 0.0 | 0.0 | 0.02 | 0.02 | 0.02 | 94 | 998.8 |
| 20260509114513 | 37 | 321 | 0.0 | 0.0 | 0.02 | 0.02 | 0.02 | 94 | 998.8 |
| 20260509114012 | 37 | 321 | 0.0 | 0.0 | 0.02 | 0.02 | 0.02 | 93 | 999.0 |
| 20260509113512 | 37 | 321 | 0.0 | 0.0 | 0.02 | 0.02 | 0.02 | 93 | 999.0 |
| 20260509113011 | 37 | 321 | 0.0 | 0.0 | 0.02 | 0.02 | 0.02 | 93 | 999.1 |
| 20260509112510 | 37 | 321 | 0.0 | 0.0 | 0.02 | 0.02 | 0.02 | 93 | 999.2 |
| 20260509112010 | 37 | 321 | 0.0 | 0.0 | 0.01 | 0.01 | 0.01 | 93 | 999.1 |
| 20260509111509 | 37 | 321 | 0.0 | 0.0 | 0.01 | 0.01 | 0.01 | 93 | 999.2 |
| 20260509111008 | 37 | 321 | 0.0 | 0.0 | 0.01 | 0.01 | 0.01 | 92 | 999.3 |
| 20260509110510 | 37 | 321 | 0.0 | 0.0 | 0.00 | 0.00 | 0.00 | 92 | 999.4 |
| 20260509110007 | 37 | 321 | 0.0 | 0.0 | 0.00 | 0.00 | 0.00 | 91 | 999.4 |
| 20260509105507 | 38 | 321 | 0.0 | 0.0 | 0.00 | 0.00 | 0.00 | 91 | 999.4 |
| 20260509105006 | 38 | 321 | 0.0 | 0.0 | 0.00 | 0.00 | 0.00 | 91 | 999.4 |
| 20260509104506 | 38 | 321 | 0.0 | 0.0 | 0.00 | 0.00 | 0.00 | 91 | 999.4 |
| 20260509104005 | 38 | 321 | 0.0 | 0.0 | 0.00 | 0.00 | 0.00 | 90 | 999.4 |
| 20260509103504 | 38 | 321 | 0.0 | 0.0 | 0.00 | 0.00 | 0.00 | 90 | 999.5 |
| 20260509103005 | 38 | 321 | 0.0 | 0.0 | 0.00 | 0.00 | 0.00 | 89 | 999.5 |
| 20260509102504 | 38 | 321 | 0.0 | 0.0 | 0.00 | 0.00 | 0.00 | 88 | 999.5 |
| 20260509102004 | 38 | 321 | 0.0 | 0.0 | 0.00 | 0.00 | 0.00 | 88 | 999.6 |
| 20260509101505 | 38 | 321 | 0.0 | 0.0 | 0.00 | 0.00 | 0.00 | 88 | 999.5 |
| 20260509101002 | 38 | 321 | 0.0 | 0.0 | 0.00 | 0.00 | 0.00 | 88 | 999.5 |
| 20260509100502 | 38 | 321 | 0.0 | 0.0 | 0.00 | 0.00 | 0.00 | 88 | 999.5 |
| 20260509100001 | 38 | 321 | 0.0 | 0.0 | 0.00 | 0.00 | 0.00 | 88 | 999.5 |
| 20260509095602 | 38 | 321 | 0.0 | 0.0 | 0.00 | 0.00 | 0.00 | 88 | 999.6 |
| 20260509095100 | 38 | 321 | 0.0 | 0.0 | 0.00 | 0.00 | 0.00 | 87 | 999.6 |
| 20260509094604 | 38 | 321 | 0.0 | 0.0 | 0.00 | 0.00 | 0.00 | 87 | 999.6 |
| 20260509094059 | 38 | 321 | 0.0 | 0.0 | 0.00 | 0.00 | 0.00 | 87 | 999.7 |
| 20260509093558 | 38 | 321 | 0.0 | 0.0 | 0.00 | 0.00 | 0.00 | 87 | 999.8 |
| 20260509093100 | 38 | 321 | 0.0 | 0.0 | 0.00 | 0.00 | 0.00 | 87 | 999.7 |
| 20260509092557 | 39 | 321 | 0.0 | 0.0 | 0.00 | 0.00 | 0.00 | 87 | 999.8 |
| 20260509092101 | 39 | 321 | 0.0 | 0.0 | 0.00 | 0.00 | 0.00 | 86 | 999.7 |
| 20260509091558 | 39 | 321 | 0.0 | 0.0 | 0.00 | 0.00 | 0.00 | 86 | 999.8 |
| 20260509091055 | 39 | 321 | 0.0 | 0.0 | 0.00 | 0.00 | 0.00 | 86 | 999.8 |
| 20260509090555 | 39 | 321 | 0.0 | 0.0 | 0.00 | 0.00 | 0.00 | 86 | 999.9 |
| 20260509090100 | 39 | 321 | 0.0 | 0.0 | 0.00 | 0.00 | 0.00 | 87 | 1000.0 |
| 20260509085554 | 39 | 321 | 0.0 | 0.0 | 0.00 | 0.00 | 0.00 | 86 | 999.9 |
| 20260509085053 | 39 | 321 | 0.0 | 0.0 | 0.00 | 0.00 | 0.00 | 87 | 1000.0 |
| 20260509084601 | 39 | 321 | 0.0 | 0.0 | 0.00 | 0.00 | 0.00 | 86 | 1000.0 |
| 20260509084053 | 39 | 321 | 0.0 | 0.0 | 0.00 | 0.00 | 0.00 | 86 | 1000.1 |
| 20260509083551 | 39 | 321 | 0.0 | 0.0 | 0.00 | 0.00 | 0.00 | 86 | 1000.1 |
| 20260509083106 | 39 | 321 | 0.0 | 0.0 | 0.00 | 0.00 | 0.00 | 86 | 1000.2 |
| 20260509082551 | 39 | 321 | 0.0 | 1.0 | 0.00 | 0.00 | 0.00 | 86 | 1000.2 |
| 20260509082052 | 39 | 321 | 0.0 | 2.0 | 0.00 | 0.00 | 0.00 | 86 | 1000.3 |
| 20260509081551 | 39 | 321 | 0.0 | 2.0 | 0.00 | 0.00 | 0.00 | 85 | 1000.4 |
| 20260509081049 | 39 | 321 | 0.0 | 0.0 | 0.00 | 0.00 | 0.00 | 85 | 1000.3 |
| 20260509080552 | 39 | 321 | 0.0 | 0.0 | 0.00 | 0.00 | 0.00 | 85 | 1000.4 |
| 20260509080051 | 39 | 321 | 0.0 | 0.0 | 0.00 | 0.00 | 0.00 | 84 | 1000.4 |
| 20260509075546 | 39 | 321 | 0.0 | 0.0 | 0.00 | 0.00 | 0.00 | 84 | 1000.5 |
| 20260509075046 | 39 | 321 | 0.0 | 0.0 | 0.00 | 0.00 | 0.00 | 84 | 1000.6 |
| 20260509074606 | 40 | 321 | 0.0 | 2.0 | 0.00 | 0.00 | 0.00 | 84 | 1000.6 |
| 20260509074045 | 40 | 321 | 0.0 | 2.0 | 0.00 | 0.00 | 0.00 | 84 | 1000.5 |
| 20260509073547 | 40 | 319 | 0.0 | 0.0 | 0.00 | 0.00 | 0.00 | 83 | 1000.6 |
| 20260509073102 | 40 | 319 | 0.0 | 0.0 | 0.00 | 0.00 | 0.00 | 83 | 1000.6 |
| 20260509072545 | 40 | 319 | 0.0 | 0.0 | 0.00 | 0.00 | 0.00 | 83 | 1000.6 |
| 20260509072044 | 40 | 319 | 0.0 | 0.0 | 0.00 | 0.00 | 0.00 | 83 | 1000.7 |
| 20260509071552 | 40 | 319 | 0.0 | 0.0 | 0.00 | 0.00 | 0.00 | 82 | 1000.7 |
| 20260509071043 | 40 | 319 | 0.0 | 0.0 | 0.00 | 0.00 | 0.00 | 82 | 1000.8 |
| 20260509070543 | 41 | 319 | 0.0 | 0.0 | 0.00 | 0.00 | 0.00 | 81 | 1000.8 |
| 20260509070047 | 41 | 319 | 0.0 | 0.0 | 0.00 | 0.00 | 0.00 | 80 | 1000.8 |
| 20260509065544 | 41 | 319 | 0.0 | 0.0 | 0.00 | 0.00 | 0.00 | 80 | 1000.9 |
| 20260509065042 | 41 | 319 | 0.0 | 3.0 | 0.00 | 0.00 | 0.00 | 80 | 1000.8 |
| 20260509064542 | 42 | 319 | 0.0 | 4.0 | 0.00 | 0.00 | 0.00 | 80 | 1000.8 |
| 20260509064041 | 42 | 317 | 2.0 | 5.0 | 0.00 | 0.00 | 0.00 | 80 | 1000.7 |
| 20260509063541 | 42 | 315 | 3.0 | 5.0 | 0.00 | 0.00 | 0.00 | 79 | 1000.9 |
| 20260509063140 | 42 | 311 | 2.0 | 3.0 | 0.00 | 0.00 | 0.00 | 79 | 1000.9 |
| 20260509062540 | 43 | 311 | 1.0 | 2.0 | 0.00 | 0.00 | 0.00 | 78 | 1000.9 |
| 20260509062040 | 43 | 311 | 1.0 | 3.0 | 0.00 | 0.00 | 0.00 | 78 | 1001.1 |
| 20260509061539 | 43 | 311 | 2.0 | 3.0 | 0.00 | 0.00 | 0.00 | 77 | 1001.2 |
| 20260509061039 | 43 | 311 | 2.0 | 4.0 | 0.00 | 0.00 | 0.00 | 77 | 1001.2 |
| 20260509060543 | 44 | 311 | 1.0 | 4.0 | 0.00 | 0.00 | 0.00 | 77 | 1001.1 |
| 20260509060054 | 44 | 315 | 2.0 | 4.0 | 0.00 | 0.00 | 0.00 | 77 | 1001.1 |
| 20260509055540 | 44 | 319 | 2.0 | 6.0 | 0.00 | 0.00 | 0.00 | 77 | 1001.1 |
| 20260509055037 | 45 | 319 | 2.0 | 6.0 | 0.00 | 0.00 | 0.00 | 76 | 1001.1 |
| 20260509054538 | 45 | 321 | 2.0 | 6.0 | 0.00 | 0.00 | 0.00 | 75 | 1001.1 |
| 20260509054037 | 45 | 315 | 2.0 | 7.0 | 0.00 | 0.00 | 0.00 | 75 | 1001.0 |
| 20260509053537 | 45 | 315 | 2.0 | 4.0 | 0.00 | 0.00 | 0.00 | 75 | 1001.1 |
| 20260509053051 | 45 | 315 | 2.0 | 5.0 | 0.00 | 0.00 | 0.00 | 74 | 1001.1 |
| 20260509052538 | 45 | 315 | 2.0 | 5.0 | 0.00 | 0.00 | 0.00 | 73 | 1001.1 |
| 20260509052037 | 45 | 323 | 2.0 | 4.0 | 0.00 | 0.00 | 0.00 | 74 | 1001.1 |
| 20260509051537 | 46 | 297 | 2.0 | 4.0 | 0.00 | 0.00 | 0.00 | 73 | 1001.2 |
| 20260509051035 | 46 | 313 | 1.0 | 4.0 | 0.00 | 0.00 | 0.00 | 73 | 1001.3 |
| 20260509050537 | 46 | 311 | 2.0 | 4.0 | 0.00 | 0.00 | 0.00 | 73 | 1001.3 |
| 20260509050035 | 46 | 294 | 1.0 | 4.0 | 0.00 | 0.00 | 0.00 | 72 | 1001.3 |
| 20260509045535 | 46 | 309 | 2.0 | 6.0 | 0.00 | 0.00 | 0.00 | 72 | 1001.4 |
| 20260509045034 | 46 | 319 | 1.0 | 6.0 | 0.00 | 0.00 | 0.00 | 72 | 1001.3 |
| 20260509044534 | 46 | 304 | 2.0 | 5.0 | 0.00 | 0.00 | 0.00 | 72 | 1001.3 |
| 20260509044034 | 46 | 293 | 3.0 | 5.0 | 0.00 | 0.00 | 0.00 | 72 | 1001.3 |
| 20260509043533 | 46 | 303 | 1.0 | 4.0 | 0.00 | 0.00 | 0.00 | 72 | 1001.4 |
| 20260509043042 | 46 | 277 | 2.0 | 5.0 | 0.00 | 0.00 | 0.00 | 72 | 1001.3 |
| 20260509042534 | 46 | 293 | 2.0 | 5.0 | 0.00 | 0.00 | 0.00 | 71 | 1001.3 |
| 20260509042035 | 46 | 304 | 0.0 | 6.0 | 0.00 | 0.00 | 0.00 | 71 | 1001.4 |
| 20260509041534 | 47 | 295 | 2.0 | 6.0 | 0.00 | 0.00 | 0.00 | 71 | 1001.4 |
| 20260509041031 | 47 | 249 | 2.0 | 8.0 | 0.00 | 0.00 | 0.00 | 70 | 1001.4 |
| 20260509040532 | 47 | 263 | 2.0 | 9.0 | 0.00 | 0.00 | 0.00 | 71 | 1001.4 |
| 20260509040038 | 47 | 263 | 1.0 | 9.0 | 0.00 | 0.00 | 0.00 | 71 | 1001.5 |
| 20260509035530 | 47 | 254 | 3.0 | 7.0 | 0.00 | 0.04 | 0.00 | 71 | 1001.6 |
| 20260509035033 | 47 | 298 | 2.0 | 7.0 | 0.00 | 0.04 | 0.00 | 71 | 1001.6 |
| 20260509034529 | 47 | 303 | 2.0 | 5.0 | 0.00 | 0.04 | 0.00 | 70 | 1001.7 |
| 20260509034028 | 47 | 327 | 1.0 | 8.0 | 0.00 | 0.04 | 0.00 | 71 | 1001.8 |
| 20260509033528 | 47 | 331 | 2.0 | 8.0 | 0.00 | 0.04 | 0.00 | 71 | 1001.9 |
| 20260509033027 | 47 | 269 | 0.0 | 6.0 | 0.00 | 0.04 | 0.00 | 71 | 1001.8 |
| 20260509032526 | 47 | 254 | 2.0 | 6.0 | 0.00 | 0.04 | 0.00 | 70 | 1001.9 |
| 20260509032025 | 47 | 249 | 1.0 | 7.0 | 0.00 | 0.04 | 0.00 | 71 | 1002.0 |
| 20260509031526 | 47 | 254 | 2.0 | 7.0 | 0.00 | 0.04 | 0.00 | 71 | 1002.0 |
| 20260509031025 | 47 | 269 | 1.0 | 8.0 | 0.00 | 0.04 | 0.00 | 71 | 1002.0 |
| 20260509030525 | 46 | 283 | 3.0 | 8.0 | 0.00 | 0.04 | 0.00 | 71 | 1002.1 |
| 20260509030025 | 46 | 247 | 0.0 | 3.0 | 0.00 | 0.04 | 0.00 | 71 | 1002.1 |
| 20260509025523 | 46 | 264 | 1.0 | 6.0 | 0.00 | 0.06 | 0.00 | 70 | 1002.2 |
| 20260509025026 | 47 | 286 | 2.0 | 9.0 | 0.00 | 0.06 | 0.00 | 70 | 1002.2 |
| 20260509024524 | 47 | 306 | 2.0 | 9.0 | 0.00 | 0.06 | 0.00 | 69 | 1002.3 |
| 20260509024025 | 47 | 302 | 2.0 | 5.0 | 0.00 | 0.06 | 0.00 | 70 | 1002.3 |
| 20260509023524 | 47 | 272 | 3.0 | 5.0 | 0.00 | 0.06 | 0.00 | 69 | 1002.3 |
| 20260509023021 | 47 | 25 | 2.0 | 11.0 | 0.00 | 0.06 | 0.00 | 68 | 1002.3 |
| 20260509022521 | 47 | 233 | 3.0 | 11.0 | 0.00 | 0.06 | 0.00 | 66 | 1002.3 |
| 20260509022021 | 48 | 250 | 1.0 | 7.0 | 0.00 | 0.06 | 0.00 | 67 | 1002.4 |
| 20260509021521 | 48 | 240 | 2.0 | 8.0 | 0.00 | 0.06 | 0.00 | 67 | 1002.2 |
| 20260509021022 | 48 | 248 | 0.0 | 8.0 | 0.00 | 0.06 | 0.00 | 69 | 1002.4 |
| 20260509020521 | 48 | 232 | 2.0 | 8.0 | 0.00 | 0.06 | 0.00 | 66 | 1002.3 |
| 20260509020019 | 49 | 223 | 2.0 | 7.0 | 0.00 | 0.06 | 0.00 | 66 | 1002.4 |
| 20260509015519 | 49 | 235 | 2.0 | 11.0 | 0.00 | 0.06 | 0.00 | 65 | 1002.5 |
| 20260509015018 | 50 | 192 | 4.0 | 11.0 | 0.00 | 0.06 | 0.00 | 63 | 1002.6 |
| 20260509014525 | 51 | 247 | 1.0 | 11.0 | 0.00 | 0.06 | 0.00 | 63 | 1002.6 |
| 20260509014018 | 51 | 190 | 3.0 | 11.0 | 0.00 | 0.06 | 0.00 | 61 | 1002.6 |
| 20260509013517 | 51 | 213 | 2.0 | 8.0 | 0.00 | 0.06 | 0.00 | 55 | 1002.6 |
| 20260509013017 | 50 | 22 | 0.0 | 3.0 | 0.00 | 0.06 | 0.00 | 55 | 1002.6 |
| 20260509012516 | 50 | 54 | 1.0 | 4.0 | 0.00 | 0.06 | 0.00 | 55 | 1002.7 |
| 20260509012015 | 50 | 16 | 1.0 | 3.0 | 0.00 | 0.06 | 0.00 | 57 | 1002.8 |
| 20260509011515 | 49 | 40 | 1.0 | 4.0 | 0.00 | 0.06 | 0.00 | 55 | 1002.9 |
| 20260509011015 | 50 | 73 | 0.0 | 4.0 | 0.00 | 0.06 | 0.00 | 57 | 1002.9 |
| 20260509010515 | 50 | 80 | 2.0 | 4.0 | 0.00 | 0.06 | 0.00 | 55 | 1003.1 |
| 20260509010016 | 50 | 58 | 2.0 | 4.0 | 0.00 | 0.06 | 0.00 | 55 | 1003.0 |
| 20260509005514 | 50 | 342 | 0.0 | 5.0 | 0.00 | 0.06 | 0.00 | 57 | 1003.2 |
| 20260509005012 | 51 | 84 | 2.0 | 8.0 | 0.00 | 0.06 | 0.00 | 54 | 1003.2 |
| 20260509004519 | 51 | 116 | 3.0 | 6.0 | 0.00 | 0.06 | 0.00 | 52 | 1003.2 |
| 20260509004010 | 51 | 351 | 1.0 | 4.0 | 0.00 | 0.06 | 0.00 | 54 | 1003.3 |
| 20260509003510 | 50 | 34 | 0.0 | 4.0 | 0.00 | 0.06 | 0.00 | 54 | 1003.3 |
| 20260509003009 | 50 | 82 | 1.0 | 6.0 | 0.00 | 0.06 | 0.00 | 53 | 1003.5 |
| 20260509002508 | 50 | 355 | 1.0 | 6.0 | 0.00 | 0.06 | 0.00 | 56 | 1003.6 |
| 20260509002007 | 49 | 113 | 2.0 | 6.0 | 0.00 | 0.06 | 0.00 | 58 | 1003.7 |
| 20260509001509 | 49 | 117 | 2.0 | 7.0 | 0.00 | 0.06 | 0.00 | 58 | 1003.7 |
| 20260509001007 | 49 | 85 | 1.0 | 7.0 | 0.00 | 0.06 | 0.00 | 59 | 1003.8 |
| 20260509000504 | 49 | 146 | 1.0 | 6.0 | 0.00 | 0.06 | 0.00 | 58 | 1003.9 |
| 20260509000003 | 48 | 32 | 1.0 | 6.0 | 0.00 | 0.06 | 0.00 | 61 | 1004.0 |
| 20260508235504 | 48 | 20 | 1.0 | 10.0 | 0.00 | 0.06 | 0.00 | 62 | 1004.1 |
| 20260508235001 | 48 | 111 | 3.0 | 10.0 | 0.00 | 0.06 | 0.00 | 65 | 1004.2 |
| 20260508234605 | 48 | 81 | 3.0 | 11.0 | 0.00 | 0.06 | 0.00 | 67 | 1004.3 |
| 20260508234059 | 48 | 92 | 3.0 | 12.0 | 0.00 | 0.06 | 0.00 | 66 | 1004.4 |
| 20260508233559 | 48 | 88 | 4.0 | 12.0 | 0.00 | 0.06 | 0.00 | 65 | 1004.5 |
| 20260508233112 | 48 | 85 | 4.0 | 14.0 | 0.00 | 0.06 | 0.00 | 64 | 1004.6 |
| 20260508232558 | 49 | 84 | 6.0 | 14.0 | 0.00 | 0.06 | 0.00 | 60 | 1004.6 |
| 20260508232058 | 49 | 49 | 3.0 | 6.0 | 0.00 | 0.06 | 0.00 | 64 | 1004.5 |
| 20260508231603 | 49 | 92 | 2.0 | 6.0 | 0.00 | 0.06 | 0.00 | 61 | 1004.5 |
| 20260508231058 | 48 | 5 | 2.0 | 8.0 | 0.00 | 0.06 | 0.00 | 62 | 1004.6 |
| 20260508230559 | 48 | 90 | 2.0 | 8.0 | 0.00 | 0.06 | 0.00 | 68 | 1004.6 |
| 20260508230057 | 48 | 115 | 2.0 | 6.0 | 0.00 | 0.06 | 0.00 | 73 | 1004.6 |
| 20260508225557 | 48 | 338 | 1.0 | 4.0 | 0.00 | 0.06 | 0.00 | 70 | 1004.6 |
| 20260508225056 | 48 | 297 | 1.0 | 3.0 | 0.00 | 0.06 | 0.00 | 70 | 1004.8 |
| 20260508224557 | 49 | 11 | 1.0 | 4.0 | 0.00 | 0.06 | 0.00 | 69 | 1004.8 |
| 20260508224054 | 49 | 79 | 2.0 | 9.0 | 0.00 | 0.06 | 0.00 | 68 | 1005.0 |
| 20260508223554 | 49 | 17 | 2.0 | 8.0 | 0.00 | 0.06 | 0.00 | 65 | 1005.0 |
| 20260508223054 | 49 | 331 | 3.0 | 8.0 | 0.00 | 0.06 | 0.00 | 63 | 1004.9 |
| 20260508222553 | 49 | 36 | 2.0 | 7.0 | 0.00 | 0.06 | 0.00 | 61 | 1005.0 |
| 20260508222053 | 49 | 22 | 2.0 | 5.0 | 0.00 | 0.06 | 0.00 | 62 | 1005.0 |
| 20260508221556 | 50 | 316 | 2.0 | 6.0 | 0.00 | 0.06 | 0.00 | 57 | 1005.0 |
| 20260508221052 | 50 | 310 | 1.0 | 8.0 | 0.00 | 0.06 | 0.00 | 58 | 1005.1 |
| 20260508220552 | 50 | 304 | 3.0 | 8.0 | 0.00 | 0.06 | 0.00 | 59 | 1005.1 |
| 20260508220054 | 50 | 313 | 2.0 | 6.0 | 0.00 | 0.06 | 0.00 | 57 | 1005.2 |
| 20260508215550 | 51 | 309 | 2.0 | 10.0 | 0.00 | 0.06 | 0.00 | 60 | 1005.3 |
| 20260508215049 | 50 | 14 | 3.0 | 10.0 | 0.00 | 0.06 | 0.00 | 58 | 1005.3 |
| 20260508214549 | 50 | 355 | 3.0 | 8.0 | 0.00 | 0.06 | 0.00 | 62 | 1005.4 |
| 20260508214049 | 49 | 326 | 3.0 | 9.0 | 0.00 | 0.06 | 0.00 | 61 | 1005.4 |
| 20260508213547 | 49 | 265 | 4.0 | 10.0 | 0.00 | 0.06 | 0.00 | 65 | 1005.5 |
| 20260508213048 | 49 | 309 | 5.0 | 10.0 | 0.00 | 0.06 | 0.00 | 64 | 1005.6 |
| 20260508212545 | 48 | 269 | 4.0 | 7.0 | 0.00 | 0.06 | 0.00 | 66 | 1005.6 |
| 20260508212048 | 49 | 329 | 3.0 | 6.0 | 0.00 | 0.06 | 0.00 | 62 | 1005.8 |
| 20260508211544 | 49 | 30 | 2.0 | 5.0 | 0.00 | 0.06 | 0.00 | 63 | 1005.8 |
| 20260508211043 | 49 | 96 | 1.0 | 6.0 | 0.00 | 0.06 | 0.00 | 59 | 1005.9 |
| 20260508210545 | 49 | 100 | 1.0 | 8.0 | 0.00 | 0.06 | 0.00 | 63 | 1006.0 |
| 20260508210043 | 49 | 90 | 3.0 | 8.0 | 0.00 | 0.06 | 0.00 | 57 | 1006.0 |
| 20260508205541 | 50 | 54 | 2.0 | 9.0 | 0.00 | 0.06 | 0.00 | 56 | 1006.1 |
| 20260508205041 | 50 | 44 | 2.0 | 9.0 | 0.00 | 0.06 | 0.00 | 57 | 1006.2 |
| 20260508204541 | 50 | 84 | 2.0 | 8.0 | 0.00 | 0.06 | 0.00 | 58 | 1006.2 |
| 20260508204042 | 50 | 121 | 3.0 | 13.0 | 0.00 | 0.06 | 0.00 | 56 | 1006.3 |
| 20260508203539 | 50 | 37 | 3.0 | 13.0 | 0.00 | 0.06 | 0.00 | 57 | 1006.3 |
| 20260508203041 | 50 | 47 | 1.0 | 9.0 | 0.00 | 0.06 | 0.00 | 59 | 1006.3 |
| 20260508202543 | 50 | 285 | 4.0 | 8.0 | 0.00 | 0.06 | 0.00 | 58 | 1006.4 |
| 20260508202037 | 50 | 355 | 3.0 | 6.0 | 0.00 | 0.06 | 0.00 | 63 | 1006.4 |
| 20260508201537 | 50 | 290 | 0.0 | 5.0 | 0.00 | 0.06 | 0.00 | 61 | 1006.5 |
| 20260508201035 | 49 | 28 | 1.0 | 6.0 | 0.00 | 0.06 | 0.00 | 62 | 1006.7 |
| 20260508200534 | 49 | 130 | 0.0 | 10.0 | 0.00 | 0.06 | 0.00 | 59 | 1006.7 |
| 20260508200034 | 49 | 69 | 2.0 | 7.0 | 0.00 | 0.06 | 0.00 | 58 | 1006.9 |
| 20260508195532 | 49 | 52 | 3.0 | 8.0 | 0.00 | 0.06 | 0.00 | 60 | 1007.0 |
| 20260508195031 | 49 | 30 | 1.0 | 5.0 | 0.00 | 0.06 | 0.00 | 61 | 1006.9 |
| 20260508194531 | 49 | 80 | 2.0 | 8.0 | 0.00 | 0.06 | 0.00 | 61 | 1007.1 |
| 20260508194031 | 49 | 336 | 2.0 | 8.0 | 0.00 | 0.06 | 0.00 | 62 | 1007.1 |
| 20260508193528 | 49 | 344 | 2.0 | 6.0 | 0.00 | 0.06 | 0.00 | 61 | 1007.1 |
| 20260508193028 | 48 | 19 | 2.0 | 8.0 | 0.00 | 0.06 | 0.00 | 62 | 1007.2 |
| 20260508192528 | 48 | 74 | 3.0 | 8.0 | 0.00 | 0.06 | 0.00 | 62 | 1007.3 |
| 20260508192025 | 47 | 311 | 3.0 | 6.0 | 0.00 | 0.06 | 0.00 | 63 | 1007.4 |
| 20260508191524 | 47 | 5 | 2.0 | 6.0 | 0.00 | 0.06 | 0.00 | 64 | 1007.5 |
| 20260508191022 | 47 | 321 | 2.0 | 5.0 | 0.00 | 0.06 | 0.00 | 64 | 1007.4 |
| 20260508190522 | 47 | 5 | 2.0 | 8.0 | 0.00 | 0.06 | 0.00 | 67 | 1007.5 |
| 20260508190019 | 46 | 49 | 3.0 | 8.0 | 0.00 | 0.06 | 0.00 | 65 | 1007.6 |